Miscellaneous Local Product
Issued by NWS North Platte, NE

Current Version | Previous Version | Text Only | Print | Product List | Glossary On
Versions: 1 2 3 4 5 6 7 8 9 10 11 12 13 14 15 16 17 18 19 20 21 22 23 24 25 26 27 28 29 30 31 32 33 34 35 36 37 38 39 40 41 42 43 44 45 46 47 48 49 50
910
AXUS43 KLBF 121810
MISLBF


WESTERN AND NORTH CENTRAL NEBRASKA HOURLY WEATHER ROUNDUP
NATIONAL WEATHER SERVICE NORTH PLATTE NE
1200 PM CST TUE DEC 12 2017

NOTE: "FAIR" INDICATES FEW OR NO CLOUDS BELOW 12,000 FEET WITH NO
SIGNIFICANT WEATHER AND/OR OBSTRUCTIONS TO VISIBILITY.

NOTE: STATIONS NOT REPORTING VARIABLES SUCH AS SKY/WEATHER OR
PRESSURE ARE PROVIDED BY RAWS AND APRS NETWORKS AND ARE NOT UNDER
NATIONAL WEATHER SERVICE QUALITY CONTROL.

...OBSERVATIONS IN AND NEAR THE EASTERN PANHANDLE OF NEBRASKA...

CITY           SKY/WX    TMP DP  RH WIND       PRES   REMARKS
PINE RIDGE     SUNNY     48  24  39 SW10      30.16F
GORDON         FAIR      50  23  34 W16       30.15F
CHADRON        SUNNY     49  22  34 W12       30.18F
ALLIANCE       SUNNY     59  22  24 NW13      30.18F
SIDNEY         SUNNY     60  16  18 NW20      30.23F
CRESCENT LAKE    N/A     54  20  26 W9          N/A
$$

...OBSERVATIONS IN NORTHERN NEBRASKA AND FAR SOUTHERN SOUTH DAKOTA...

CITY           SKY/WX    TMP DP  RH WIND       PRES   REMARKS
WINNER         FAIR      46  26  45 SW12      30.12F
VALENTINE      SUNNY     44  22  41 W7        30.14F
THEDFORD       SUNNY     48  23  36 W9        30.17F
AINSWORTH      SUNNY     45  24  42 W7        30.14F
O`NEILL        SUNNY     41  29  62 W9        30.16F
ORD            SUNNY     44  26  49 W8        30.18F
BROKEN BOW     SUNNY     45  23  42 W7        30.18F
VALENTINE NWR    N/A     44  19  36 W7          N/A
HALSEY           N/A     45  19  35 W6          N/A
BUTTE            N/A     40  30  66 SW8         N/A  WCI  34
CHAMBERS         N/A     43  28  54 SW3         N/A
EWING            N/A     41  30  64 W9          N/A
$$

...OBSERVATIONS IN SOUTHWEST NEBRASKA AND FAR NORTHEAST COLORADO...

CITY           SKY/WX    TMP DP  RH WIND       PRES   REMARKS
WRAY           FAIR      55  14  19 W9        30.25F
HOLYOKE        FAIR      61  18  18 NW8       30.24F
IMPERIAL       SUNNY     54  18  24 NW10      30.23F
OGALLALA       SUNNY     48  22  35 W8        30.21F
NORTH PLATTE   SUNNY     42  22  44 W7        30.22F
MCCOOK         SUNNY     43  21  41 W10       30.23F
LEXINGTON      SUNNY     42  22  46 NW8       30.22F
STAPLETON        N/A     43  28  55 CALM        N/A
GOTHENBURG       N/A     42  21  42 NW8         N/A
CALLAWAY         N/A     44  24  45 NW6         N/A
$$

...OBSERVATIONS IN CENTRAL LINCOLN COUNTY AREA...

CITY           SKY/WX    TMP DP  RH WIND       PRES   REMARKS
N.P. AIRPORT   SUNNY     42  22  44 W7        30.22F
N.P. DOWNTOWN    N/A     40  24  54 W3          N/A
N.P. SOUTHEAST   N/A     40  24  52 W3          N/A
N.P. HILLCREST   N/A     39  26  60 W7          N/A  WCI  34
$$

...SOME OBSERVATIONS FROM AROUND THE REGION...

CITY           SKY/WX    TMP DP  RH WIND       PRES   REMARKS
DENVER         MOSUNNY   60  12  15 SW9       30.29F
GRAND JUNCTION SUNNY     43  10  26 SE6       30.52F
LARAMIE        SUNNY     52  13  21 W18       30.37F
CHEYENNE       SUNNY     59  15  18 NW15      30.31F
CASPER         SUNNY     43  17  35 SW24G32   30.32F
BISMARCK       SUNNY     42  27  55 W8        29.96F
RAPID CITY     SUNNY     49  17  28 SE5       30.11F
PIERRE         SUNNY     37  27  67 W13       30.06F WCI  29
SIOUX FALLS    CLOUDY    31  25  78 SW8       30.12F WCI  23
OMAHA          MOSUNNY   32  17  54 SE5       30.26F WCI  27
GRAND ISLAND   SUNNY     42  28  57 W8        30.22F
SCOTTSBLUFF    SUNNY     50  19  29 NW10      30.23F
KANSAS CITY    MOSUNNY   32  11  41 W9        30.30F WCI  24
HILL CITY      SUNNY     49  21  33 SW7       30.26F
WICHITA        SUNNY     44  29  55 W7        30.35F
DODGE CITY     SUNNY     50  17  27 W9        30.32F
OKLAHOMA CITY  SUNNY     45  25  45 N12       30.41F
DALLAS         SUNNY     53  28  38 N12       30.40F
AMARILLO       SUNNY     54  14  20 W10       30.42F
$$




USA.gov is the U.S. government's official web portal to all federal, state and local government web resources and services.